Flag for U.S.A. Weather past 2 weeks in Santa Barbara, California, U.S.A.

Now
80 °F

Clear.


Feels Like: 80 °F
Forecast: 67 / 82 °F
Wind: 3 mph from Southeast

Location: Santa Barbara Municipal Airport

Current Time: Sep 15, 2014 at 10:09:19 PM

Latest Report: Sep 15, 2014 at 8:53 PM


Visibility: 10 mi

Pressure: 29.75 "Hg

Humidity: 41%

Dew point: 54 °F

Location of Santa BarbaraLocation

Historic Weather in Santa Barbara — Graph

°F

Santa Barbara temperature yesterday

Maximum temperature yesterday: 84 °F (at 1:53 PM)
Minimum temperature yesterday: 65 °F (at 3:53 AM)
Average temperature yesterday: 72 °F

Past Weeks' High & Low Weather Summary

 TemperatureHumidityPressure
High84 °F (Sep 14, 1:53 PM)94% (Sep 3, 12:53 AM)29.93 "Hg (Sep 3, 12:53 AM)
Low52 °F (Sep 7, 5:53 AM)38% (Sep 15, 7:53 PM)29.69 "Hg (Sep 13, 9:53 PM)
Average69 °F76%29.81 "Hg
* Reported Aug 31 8:53 PM — Sep 15 8:53 PM, Santa Barbara, Weather by CustomWeather, © 2014

Note: Actual official high and low records may vary slightly from our data, if they occured in-between our weather recording intervals... More about our weather records

Advertising

Santa Barbara weather history for previous 24 hours

 ConditionsComfort  
Time TempWeatherWind HumidityBarometerVisibility
8:53 PM
Sep 15
80 °FClear.3 mph41%29.75 "Hg10 mi
7:53 PM83 °FSunny.5 mph38%29.74 "Hg10 mi
6:53 PM81 °FSunny.No wind56%29.73 "Hg10 mi
5:53 PM83 °FSunny.5 mph53%29.74 "Hg10 mi
4:53 PM82 °FSunny.6 mph55%29.75 "Hg10 mi
3:53 PM80 °FSunny.8 mph58%29.76 "Hg10 mi
2:53 PM79 °FSunny.7 mph60%29.77 "Hg10 mi
1:53 PM79 °FSunny.7 mph60%29.79 "Hg10 mi
12:53 PM83 °FPassing clouds.3 mph48%29.80 "Hg10 mi
11:53 AM78 °FSunny.5 mph62%29.81 "Hg10 mi
10:53 AM76 °FSunny.8 mph69%29.82 "Hg9 mi
9:53 AM78 °FSunny.5 mph58%29.82 "Hg10 mi
8:53 AM75 °FSunny.No wind71%29.81 "Hg9 mi
7:53 AM71 °FSunny.5 mph81%29.80 "Hg7 mi
6:53 AM66 °FClear.5 mph84%29.79 "Hg6 mi
5:53 AM65 °FClear.No wind87%29.77 "Hg9 mi
4:53 AM69 °FClear.5 mph79%29.75 "Hg10 mi
3:53 AM70 °FClear.3 mph76%29.74 "Hg10 mi
2:53 AM69 °FClear.3 mph81%29.74 "Hg9 mi
1:53 AM69 °FClear.3 mph84%29.74 "Hg8 mi
12:53 AM68 °FClear.No wind84%29.73 "Hg8 mi
11:53 PM
Sep 14
72 °FClear.No wind76%29.73 "Hg9 mi
10:53 PM71 °FClear.No wind78%29.73 "Hg9 mi
Weather by CustomWeather, © 2014

See weather overviewHow to use our weather pages